Track COSMOS 1197 now! 10-day predictions COSMOS 1197 is classified as:
1 11880U 80058F 22136.72181092 -.00000029 00000-0 -89381-4 0 9999 2 11880 74.0168 292.9966 0013085 128.1262 232.0968 12.45979042903654